Printer-friendly version

IAU Minor Planet Center

Minor Planet Center

MPEC 2008-T108: 2008 TQ10

The following Minor Planet Electronic Circular may be linked-to from your own Web pages, but must not otherwise be redistributed electronically.

A form allowing access to any MPEC is at the bottom of this page.


Read MPEC 2008-T107 Read MPEC 2008-T109


M.P.E.C. 2008-T108                               Issued 2008 Oct.  9, 16:40 UT

     The Minor Planet Electronic Circulars contain information on unusual
         minor planets and routine data on comets.  They are published
   on behalf of Commission 20 of the International Astronomical Union by the
          Minor Planet Center, Smithsonian Astrophysical Observatory,
                          Cambridge, MA 02138, U.S.A.

             Prepared using the Tamkin Foundation Computer Network

                              MPC@CFA.HARVARD.EDU
          URL http://www.cfa.harvard.edu/iau/mpc.html  ISSN 1523-6714

                                   2008 TQ10

Observations:
     K08T10Q* C2008 10 08.36010 01 16 16.96 +20 06 32.1          20.6 V ET108G96
     K08T10Q  C2008 10 08.36516 01 16 16.10 +20 06 38.8          20.8 V ET108G96
     K08T10Q  C2008 10 08.37022 01 16 15.27 +20 06 45.2          21.0 V ET108G96
     K08T10Q  C2008 10 08.37517 01 16 14.44 +20 06 51.9          20.6 V ET108G96
     K08T10Q  C2008 10 08.40167 01 16 10.06 +20 07 26.7          20.8 V ET108G96
     K08T10Q  C2008 10 08.40323 01 16 09.80 +20 07 29.1          20.7 V ET108G96
     K08T10Q  C2008 10 08.40482 01 16 09.42 +20 07 30.0          20.8 V ET108G96
     K08T10Q  C2008 10 08.40641 01 16 09.26 +20 07 33.2          20.9 V ET108G96
     K08T10Q  C2008 10 08.40799 01 16 09.01 +20 07 35.6          20.4 V ET108G96
     K08T10Q  C2008 10 08.40956 01 16 08.72 +20 07 37.4          20.6 V ET108G96
     K08T10Q  C2008 10 08.41116 01 16 08.46 +20 07 38.7          20.6 V ET108G96
     K08T10Q  C2008 10 08.41273 01 16 08.32 +20 07 41.7          19.8 V ET108G96
     K08T10Q  C2008 10 09.00968 01 14 33.31 +20 20 37.8                 ET108J95
     K08T10Q  C2008 10 09.02420 01 14 30.99 +20 20 56.8          20.4 R ET108J95
     K08T10Q  C2008 10 09.16190 01 14 09.63 +20 23 58.0          20.5 V ET108H55
     K08T10Q  C2008 10 09.17044 01 14 08.18 +20 24 07.8          20.8 V ET108H55
     K08T10Q  C2008 10 09.17927 01 14 06.74 +20 24 19.2          20.9 V ET108H55
     K08T10Q  C2008 10 09.32884 01 13 42.52 +20 27 32.3          20.9 V ET108G96
     K08T10Q  C2008 10 09.33328 01 13 41.80 +20 27 37.9          21.3 V ET108G96
     K08T10Q  C2008 10 09.33780 01 13 41.05 +20 27 43.8          21.1 V ET108G96
     K08T10Q  C2008 10 09.34232 01 13 40.33 +20 27 49.6          20.5 V ET108G96
     K08T10Q  C2008 10 09.37043 01 13 35.63 +20 28 24.7          20.7 R ET108H01
     K08T10Q  C2008 10 09.37113 01 13 35.53 +20 28 25.6          20.6 R ET108H01
     K08T10Q  C2008 10 09.37694 01 13 34.57 +20 28 32.9          20.5 R ET108H01
     K08T10Q  C2008 10 09.37764 01 13 34.45 +20 28 33.7          20.5 R ET108H01
     K08T10Q  C2008 10 09.44397 01 13 23.68 +20 29 57.3          21.0 V ET108291
     K08T10Q  C2008 10 09.44804 01 13 22.99 +20 30 02.4          20.9 V ET108291
     K08T10Q  C2008 10 09.45196 01 13 22.38 +20 30 07.3          20.8 V ET108291

Observer details:
291 LPL/Spacewatch II.  Observer J. V. Scotti.  1.8-m f/2.7 reflector + CCD.
G96 Mt. Lemmon Survey.  Observer A. Boattini.  Measurers E. C. Beshore,
    A. Boattini, G. J. Garradd, A. R. Gibbs, A. D. Grauer, R. E. Hill,
    R. A. Kowalski, S. M. Larson, R. H. McNaught.  1.5-m reflector + CCD.
H01 Magdalena Ridge Observatory, Socorro.  Observer W. H. Ryan.  2.4-m f/8.9
    reflector + CCD.
H55 Astronomical Research Observatory, Charleston.  Observer R. Holmes.
    Measurer H. Devore.  0.61-m f/4.0 astrograph + CCD.
J95 Great Shefford.  Observer P. Birtwhistle.  0.40-m f/6.0 Schmidt-Cassegrain
    + CCD.

Orbital elements:
2008 TQ10                                                Earth MOID = 0.3187 AU
Epoch 2008 Nov. 30.0 TT = JDT 2454800.5                 MPC
M  44.51478              (2000.0)            P               Q
n   0.30426260     Peri.  296.66384     +0.58220876     +0.81011981
a   2.1892919      Node     9.85750     -0.52619997     +0.43999800
e   0.4627604      Incl.   23.70969     -0.61979557     +0.38743729
P   3.24           H   20.6           G   0.15           U   8
Residuals in seconds of arc
081008 G96  0.0   0.0     081008 G96  0.2-  0.5-    081009 G96  0.4+  0.0
081008 G96  0.2-  0.0     081008 G96  1.5+  0.5+    081009 H01  0.0   0.1+
081008 G96  0.0   0.3-    081009 J95  0.4-  0.3-    081009 H01  0.2+  0.1+
081008 G96  0.1-  0.1-    081009 J95  0.4+  0.0     081009 H01  0.1+  0.1+
081008 G96  0.2+  0.1-    081009 H55  0.4+  1.4+    081009 H01  0.0   0.0
081008 G96  0.2+  0.3+    081009 H55  0.3-  0.2+    081009 291  0.1+  0.1-
081008 G96  1.4-  0.9-    081009 H55  0.2-  0.1+    081009 291  0.3-  0.0
081008 G96  0.0   0.2+    081009 G96  0.0   0.2-    081009 291  0.1+  0.0
081008 G96  0.2+  0.6+    081009 G96  0.1+  0.3-
081008 G96  0.2-  0.3+    081009 G96  0.0   0.1-

Ephemeris:
2008 TQ10                a,e,i = 2.19, 0.46, 24                  q = 1.1762
Date    TT    R. A. (2000) Decl.     Delta      r     Elong.  Phase     V
2008 10 01    01 36.60   +16 58.5    0.495    1.473   158.6    14.4    20.7
2008 10 11    01 09.35   +21 01.8    0.543    1.531   166.0     9.1    20.8
2008 10 21    00 46.38   +23 36.6    0.615    1.590   161.3    11.6    21.3
2008 10 31    00 30.15   +25 04.1    0.708    1.650   151.6    16.6    21.8
2008 11 10    00 21.08   +25 52.3    0.819    1.710   141.8    21.0    22.4

Sonia Keys                   (C) Copyright 2008 MPC           M.P.E.C. 2008-T108

Read MPEC 2008-T107 Read MPEC 2008-T109


MPEC number:

Enter an
MPEC number in one of the following forms:
  • 1997-B01 (the full form)
  • J97B01 (the packed version of the full form)
  • B01 (the abbreviated form)

Valid HTML 4.01!